Weather History for Mountain Home, ID

Change the Weather History Date:

Tuesday, February 5, 2013

  Actual Average Record
Temperature  
Mean Temperature 37 °F 33 °F  
Max Temperature 48 °F 42 °F 62 °F (1963)
Min Temperature 26 °F 23 °F -13 °F (1989)
Degree Days  
Heating Degree Days 28 32  
Month to date heating degree days 155 162  
Cooling Degree Days 0 0  
Month to date cooling degree days 0 0  
Moisture  
Dew Point 31 °F    
Average Humidity 96    
Maximum Humidity 100    
Minimum Humidity 61    
Precipitation  
Precipitation T in 0.03 in 0.51 in (1907)
Month to date precipitation T 0.14  
Sea Level Pressure  
Sea Level Pressure 30.02 in    
Wind  
Wind Speed 4 mph (NNW)    
Max Wind Speed 13 mph    
Max Gust Speed -    
Visibility 4 miles    
Events Fog    
T = Trace of Precipitation, MM = Missing Value Source: NWS Daily Summary

Daily Weather History Graph

Daily Weather History Graph

Search for Another Location

Airport:

Trip Planner

Search our weather history database for the weather conditions in past years. The results will help you decide how hot, cold, wet, or windy it might be!

Date:

Astronomy

Feb. 05, 2013 Rise Set
Actual Time 7:53 AM MST 6:01 PM MST
Civil Twilight 7:23 AM MST 6:31 PM MST
Nautical Twilight 6:50 AM MST 7:05 PM MST
Astronomical Twilight 6:17 AM MST 7:38 PM MST
Moon 3:43 AM MST (2/5) 1:20 PM MST (2/5)
Length of Visible Light 11h 07m
Length of Day
10h 08m
Waning Crescent, 26% of the Moon is Illuminated
Feb 5
Waning Crescent
Feb 10
New
Feb 17
First Quarter
Feb 25
Full
Mar 4
Last Quarter

Hourly Weather History & Observations

Time (MST) Temp. Windchill Dew Point Humidity Pressure Visibility Wind Dir Wind Speed Gust Speed Precip Events Conditions
12:48 AM 32.0 °F 28.7 °F 32.0 °F 100% 30.08 in 5.0 mi East 3.5 mph - N/A   Overcast
12:58 AM 30.9 °F - 30.7 °F 99% 30.15 in 6.0 mi Calm Calm - N/A   Overcast
1:23 AM 32.0 °F 28.7 °F 32.0 °F 100% 30.07 in 6.0 mi SE 3.5 mph - N/A   Overcast
1:28 AM 32.0 °F 28.7 °F 32.0 °F 100% 30.06 in 6.0 mi SE 3.5 mph - N/A   Overcast
1:43 AM 32.0 °F - 32.0 °F 100% 30.05 in 5.0 mi SSE 2.3 mph - N/A   Overcast
1:58 AM 30.6 °F 25.8 °F 30.4 °F 99% 30.12 in 6.0 mi SE 4.6 mph - N/A   Overcast
2:53 AM 32.0 °F - 32.0 °F 100% 30.04 in 5.0 mi East 1.2 mph - N/A   Overcast
2:58 AM 30.7 °F - 30.6 °F 99% 30.11 in 5.0 mi Calm Calm - N/A   Mostly Cloudy
3:53 AM 28.4 °F 22.2 °F 28.4 °F 100% 30.03 in 1.5 mi NW 5.8 mph - N/A   Partly Cloudy
3:58 AM 28.6 °F 22.4 °F 28.2 °F 99% 30.09 in 0.8 mi NW 5.8 mph - N/A   Partly Cloudy
4:03 AM 28.4 °F 24.6 °F 28.4 °F 100% 30.02 in 0.8 mi NNW 3.5 mph - N/A   Partly Cloudy
4:08 AM 28.4 °F - 28.4 °F 100% 30.02 in 1.5 mi NNE 1.2 mph - N/A   Partly Cloudy
4:13 AM 28.4 °F - 28.4 °F 100% 30.02 in 0.5 mi Variable 2.3 mph - N/A Fog Light Freezing Fog
4:18 AM 28.4 °F - 28.4 °F 100% 30.02 in 0.2 mi NNW 2.3 mph - N/A Fog Light Freezing Fog
4:38 AM 28.4 °F 23.3 °F 28.4 °F 100% 30.03 in 0.2 mi NNW 4.6 mph - N/A Fog Light Freezing Fog
4:58 AM 28.0 °F - 27.9 °F 99% 30.09 in 0.2 mi NNE 2.3 mph - N/A Fog Light Freezing Fog
5:58 AM 28.2 °F 24.4 °F 28.0 °F 99% 30.09 in 0.5 mi NNW 3.5 mph - N/A Fog Light Freezing Fog
6:09 AM 28.4 °F 22.2 °F 28.4 °F 100% 30.02 in 0.2 mi NW 5.8 mph - N/A Fog Light Freezing Fog
6:59 AM 27.5 °F - 27.3 °F 99% 30.07 in 0.2 mi NE 2.3 mph - N/A Fog Light Freezing Fog
7:17 AM 26.6 °F - 26.6 °F 100% 30.00 in 0.5 mi Calm Calm - N/A Fog Light Freezing Fog
7:58 AM 26.6 °F - 26.4 °F 99% 30.08 in 0.2 mi Calm Calm - N/A Fog Light Freezing Fog
8:03 AM 26.6 °F - 26.6 °F 100% 30.00 in 0.2 mi Calm Calm - N/A Fog Light Freezing Fog
8:58 AM 28.2 °F 20.2 °F 28.0 °F 99% 30.07 in 0.2 mi North 8.1 mph - N/A Fog Light Freezing Fog
9:09 AM 28.4 °F 21.2 °F 28.4 °F 100% 30.00 in 4.0 mi North 6.9 mph - N/A   Overcast
9:24 AM 28.4 °F 23.3 °F 28.4 °F 100% 30.01 in 7.0 mi NNW 4.6 mph - N/A   Mostly Cloudy
9:58 AM 29.7 °F - 29.5 °F 99% 30.06 in 10.0 mi Calm Calm - N/A   Mostly Cloudy
10:58 AM 35.2 °F 28.1 °F 34.9 °F 99% 30.05 in 10.0 mi South 9.2 mph - N/A   Mostly Cloudy
11:58 AM 37.9 °F 34.4 °F 37.6 °F 99% 30.02 in 10.0 mi SSE 4.6 mph - N/A   Mostly Cloudy
12:58 PM 42.3 °F 38.6 °F 42.1 °F 99% 29.97 in 10.0 mi ESE 5.8 mph - N/A   Mostly Cloudy
1:58 PM 46.0 °F 41.9 °F 33.3 °F 61% 29.95 in 10.0 mi WSW 8.1 mph - N/A   Mostly Cloudy
2:58 PM 42.1 °F 35.2 °F 34.0 °F 73% 29.94 in 10.0 mi West 12.7 mph - N/A   Mostly Cloudy
3:58 PM 41.9 °F 36.9 °F 34.9 °F 76% 29.94 in 10.0 mi NW 8.1 mph - N/A   Overcast
4:58 PM 41.5 °F 35.4 °F 35.2 °F 78% 29.95 in 10.0 mi NW 10.4 mph - N/A   Overcast
5:58 PM 37.6 °F 32.3 °F 33.4 °F 85% 29.96 in 10.0 mi NW 6.9 mph - N/A   Mostly Cloudy
6:58 PM 33.3 °F 30.2 °F 31.3 °F 92% 29.98 in 10.0 mi NNW 3.5 mph - N/A   Mostly Cloudy
7:58 PM 32.9 °F 26.7 °F 31.5 °F 94% 29.99 in 8.0 mi NNW 6.9 mph - N/A   Mostly Cloudy
8:38 PM 32.0 °F 26.4 °F 30.2 °F 93% 29.93 in 3.0 mi NNW 5.8 mph - N/A   Mostly Cloudy
8:53 PM 32.0 °F 23.6 °F 30.2 °F 93% 29.94 in 2.0 mi NNW 10.4 mph - N/A   Overcast
8:58 PM 30.2 °F 20.8 °F 29.3 °F 96% 30.01 in 1.0 mi NNW 11.5 mph - N/A   Overcast
9:05 PM 30.2 °F 20.8 °F 30.2 °F 100% 29.94 in 0.5 mi NNW 11.5 mph - N/A Fog Light Freezing Fog
9:54 PM 32.0 °F 22.5 °F 30.2 °F 93% 29.97 in 0.5 mi NNW 12.7 mph - N/A Fog Light Freezing Fog
9:58 PM 30.7 °F 20.9 °F 30.2 °F 98% 29.97 in 0.5 mi NW 12.7 mph - N/A Fog Light Freezing Fog
9:59 PM 32.0 °F 22.5 °F 32.0 °F 100% 29.97 in 0.5 mi NW 12.7 mph - N/A Fog Light Freezing Fog
10:58 PM 31.6 °F 23.7 °F 31.5 °F 99% 30.05 in 0.8 mi NNW 9.2 mph - N/A   Mist
11:58 PM 30.7 °F 27.3 °F 30.6 °F 99% 30.04 in 1.0 mi WSW 3.5 mph - N/A   Overcast